User: anonymous   Login
Location: Unspecified
(0.0000°N, 0.0000°E)
Time: 04:09:34
(UTC+00:00)
Language:

GALEX - Orbit

View from above orbital plane
View from above orbital plane
View from above satellite
View from above satellite

Ground track
Ground track

The orbit data is extracted from the following two-line orbital elements,

1 27783U 03017A   19291.40437347  .00000196  00000-0  17311-4 0  9995
2 27783  28.9980 274.1482 0003751 173.5395 186.5242 14.62169786880400
Epoch (UTC): 18 October 2019 09:42:17
Eccentricity: 0.0003751
inclination: 28.9980°
perigee height: 683 km
apogee height: 689 km
right ascension of ascending node: 274.1482°
argument of perigee: 173.5395°
revolutions per day: 14.62169786
mean anomaly at epoch: 186.5242°
orbit number at epoch: 88040

The dashed part of the orbit path shows where the satellite is in the earth's shadow,  

DLR